Darstellungsparameter: Aktuell verwendete Einstellungen:
Skalierung der Graphiken ... ?
xyx+y,   Skalierungsfaktor:      Skalierung: Modus: x, Faktor: 1
Darstellungszeitraum ... ?
Vom - - bis: - -   Zeitraum: 15.06.2020 - 28.06.2020
Min/Max/Avg-Anzeige ... ?
Zeige MMA aktuell
Zeige MMA Monat
Zeige MMA alles
Zeige --A aktuell
Zeige --A Monat
Zeige --A alles
Keine MMA-Anzeige
MMA:
Minimum Maximum Average (ber die Originaldaten)
MMA-Basis: 23.02.2003 - 29.06.2020
Quicknavigation für Darstellung... ?
Tage:      1T, 2T, 3T, 5T -1T -2T -3T -5T +1T +2T +3T +5T
Wochen: 1W, 2W, 3W -1W -2W -3W +1W +2W +3W
Monate: 1M, 3M, 6M -1M -3M -6M +1M +3M +6M
Jahre:    1J, 3J, 5J, 10J -1J -3J -5J -10J +1J +3J +5J +10J
Nutze für die Darstellung ... ?
Originaldaten oder ...
Mittelwerte Minima Maxima auf...
Stundenbasis Tagesbasis Wochenbasis
Monatsbasis Jahresbasis      Datenbasis: Mittelwerte auf Stundenbasis
Darstellen als:
Statistik (Auto) Statistik J:M      Darstellung:
Zur Graphik,    zurück zur Übersicht aller Sensoren.
 
Tabellarische Datenbersicht: ?
 
Sensor: Nr:Datum:Temp:Abs-Feuchte:Windchill:Wind:
Aussen-T/F 1 15-06-2020 00:00:00 17.28333 C 12.87 g/m*3 17.28 C 5.48333 km/h
2 15-06-2020 01:00:00 16.86667 C 12.49 g/m*3 16.87 C 2.66667 km/h
3 15-06-2020 02:00:00 16.625 C 12.56 g/m*3 16.63 C 2.13333 km/h
4 15-06-2020 03:00:00 16.575 C 12.55 g/m*3 16.58 C 1.6 km/h
5 15-06-2020 04:00:00 16.64167 C 12.66 g/m*3 16.64 C 4.40833 km/h
6 15-06-2020 05:00:00 16.54167 C 12.66 g/m*3 16.54 C 2.80833 km/h
7 15-06-2020 06:00:00 16.6 C 12.71 g/m*3 16.6 C 1.6 km/h
8 15-06-2020 07:00:00 16.80833 C 12.87 g/m*3 16.81 C 1.2 km/h
9 15-06-2020 08:00:00 17.54167 C 13.15 g/m*3 17.54 C 3.6 km/h
10 15-06-2020 09:00:00 18.325 C 13.34 g/m*3 18.33 C 5.35 km/h
11 15-06-2020 10:00:00 19.40833 C 13.7 g/m*3 19.41 C 6.56667 km/h
12 15-06-2020 11:00:00 20.11667 C 13.62 g/m*3 20.12 C 5.48333 km/h
13 15-06-2020 12:00:00 20.575 C 12.52 g/m*3 20.58 C 6.575 km/h
14 15-06-2020 13:00:00 20.44167 C 12.03 g/m*3 20.44 C 6.30833 km/h
15 15-06-2020 14:00:00 20.51667 C 12.26 g/m*3 20.52 C 3.075 km/h
16 15-06-2020 15:00:00 20.55833 C 13.08 g/m*3 20.56 C 0 km/h
17 15-06-2020 16:00:00 20.98333 C 12.93 g/m*3 20.98 C 0 km/h
18 15-06-2020 17:00:00 21.1 C 12.23 g/m*3 21.1 C 2.88 km/h
19 15-06-2020 18:00:00 21.29167 C 12.31 g/m*3 21.29 C 0.8 km/h
20 15-06-2020 19:00:00 21.325 C 13.27 g/m*3 21.33 C 0.53333 km/h
21 15-06-2020 20:00:00 19.58333 C 12.75 g/m*3 19.58 C 2.93333 km/h
22 15-06-2020 21:00:00 18.6 C 12.47 g/m*3 18.6 C 4.13333 km/h
23 15-06-2020 22:00:00 17.64167 C 12.34 g/m*3 17.64 C 0.26667 km/h
24 15-06-2020 23:00:00 17.16667 C 12.34 g/m*3 17.17 C 0 km/h
25 16-06-2020 00:00:00 17.11667 C 12.6 g/m*3 17.12 C 0 km/h
Sensor: Nr:Datum:Temp:Abs-Feuchte:Windchill:Wind:
Aussen-T/F 26 16-06-2020 01:00:00 16.875 C 13.05 g/m*3 16.88 C 0 km/h
27 16-06-2020 02:00:00 16.45833 C 13.01 g/m*3 16.46 C 0 km/h
28 16-06-2020 03:00:00 16.2 C 12.97 g/m*3 16.2 C 0 km/h
29 16-06-2020 04:00:00 16.11667 C 13.03 g/m*3 16.12 C 0 km/h
30 16-06-2020 05:00:00 16.05833 C 12.99 g/m*3 16.06 C 0.26667 km/h
31 16-06-2020 06:00:00 15.94167 C 12.98 g/m*3 15.94 C 0.4 km/h
32 16-06-2020 07:00:00 16.18333 C 13.23 g/m*3 16.18 C 0.13333 km/h
33 16-06-2020 08:00:00 16.68333 C 13.63 g/m*3 16.68 C 2.13333 km/h
34 16-06-2020 09:00:00 17.125 C 14 g/m*3 17.13 C 2.66667 km/h
35 16-06-2020 10:00:00 17.93333 C 14.51 g/m*3 17.93 C 0.26667 km/h
36 16-06-2020 11:00:00 19.01667 C 14.61 g/m*3 19.02 C 1.86667 km/h
37 16-06-2020 12:00:00 19.91667 C 14.26 g/m*3 19.92 C 3.73333 km/h
38 16-06-2020 13:00:00 20.48333 C 13.87 g/m*3 20.48 C 6.55833 km/h
39 16-06-2020 14:00:00 21.13333 C 14.25 g/m*3 21.13 C 2.14167 km/h
40 16-06-2020 15:00:00 21.375 C 14.38 g/m*3 21.38 C 3.34167 km/h
41 16-06-2020 16:00:00 19.025 C 13.79 g/m*3 19.02 C 2.8 km/h
42 16-06-2020 17:00:00 18.39167 C 13.98 g/m*3 18.39 C 0.53333 km/h
43 16-06-2020 18:00:00 18.83333 C 14.33 g/m*3 18.83 C 2.4 km/h
44 16-06-2020 19:00:00 20.31667 C 14.92 g/m*3 20.32 C 6.13333 km/h
45 16-06-2020 20:00:00 20.65 C 14.66 g/m*3 20.65 C 2.01667 km/h
46 16-06-2020 21:00:00 19.10833 C 14 g/m*3 19.11 C 2.53333 km/h
47 16-06-2020 22:00:00 16.69167 C 12.83 g/m*3 16.69 C 1.46667 km/h
48 16-06-2020 23:00:00 15.40833 C 12.17 g/m*3 15.41 C 0.13333 km/h
49 17-06-2020 00:00:00 14.6 C 11.77 g/m*3 14.6 C 0 km/h
50 17-06-2020 01:00:00 14 C 11.46 g/m*3 14 C 0 km/h
Sensor: Nr:Datum:Temp:Abs-Feuchte:Windchill:Wind:
Aussen-T/F 51 17-06-2020 02:00:00 14.46667 C 11.91 g/m*3 14.47 C 0.26667 km/h
52 17-06-2020 03:00:00 14.55 C 11.99 g/m*3 14.55 C 0.8 km/h
53 17-06-2020 04:00:00 14.21667 C 11.85 g/m*3 14.22 C 0 km/h
54 17-06-2020 05:00:00 14.16667 C 11.82 g/m*3 14.17 C 0 km/h
55 17-06-2020 06:00:00 14.34167 C 11.95 g/m*3 14.34 C 0 km/h
56 17-06-2020 07:00:00 14.61667 C 12.15 g/m*3 14.62 C 0 km/h
57 17-06-2020 08:00:00 14.91667 C 12.38 g/m*3 14.92 C 0 km/h
58 17-06-2020 09:00:00 15.43333 C 12.77 g/m*3 15.43 C 0 km/h
59 17-06-2020 10:00:00 16.63333 C 13.44 g/m*3 16.63 C 2 km/h
60 17-06-2020 11:00:00 18.50833 C 13.86 g/m*3 18.51 C 5.34167 km/h
61 17-06-2020 12:00:00 20.51667 C 14.1 g/m*3 20.52 C 5.35 km/h
62 17-06-2020 13:00:00 21.81667 C 14.26 g/m*3 21.82 C 5.08333 km/h
63 17-06-2020 14:00:00 22.75 C 14.25 g/m*3 22.75 C 3.6 km/h
64 17-06-2020 15:00:00 23.05833 C 15.09 g/m*3 23.06 C 5.35 km/h
65 17-06-2020 16:00:00 20.49167 C 15.93 g/m*3 20.49 C 2.4 km/h
66 17-06-2020 17:00:00 21.50833 C 16.6 g/m*3 21.51 C 1.06667 km/h
67 17-06-2020 18:00:00 23.34167 C 15.4 g/m*3 23.34 C 3.6 km/h
68 17-06-2020 19:00:00 19.65 C 13.91 g/m*3 19.65 C 4.84167 km/h
69 17-06-2020 20:00:00 17.175 C 13.49 g/m*3 17.18 C 1.06667 km/h
70 17-06-2020 21:00:00 16.54167 C 13.28 g/m*3 16.54 C 4.13333 km/h
71 17-06-2020 22:00:00 16.18333 C 13.09 g/m*3 16.18 C 1.73333 km/h
72 17-06-2020 23:00:00 15.53333 C 12.58 g/m*3 15.53 C 4.41667 km/h
73 18-06-2020 00:00:00 15.11667 C 12.35 g/m*3 15.12 C 1.06667 km/h
74 18-06-2020 01:00:00 14.76667 C 12.08 g/m*3 14.77 C 2.93333 km/h
75 18-06-2020 02:00:00 14.41667 C 11.87 g/m*3 14.42 C 3.20833 km/h
Sensor: Nr:Datum:Temp:Abs-Feuchte:Windchill:Wind:
Aussen-T/F 76 18-06-2020 03:00:00 14.4 C 11.87 g/m*3 14.4 C 6.56667 km/h
77 18-06-2020 04:00:00 14.3 C 11.79 g/m*3 14.3 C 4.14167 km/h
78 18-06-2020 05:00:00 14.1 C 11.65 g/m*3 14.1 C 2.53333 km/h
79 18-06-2020 06:00:00 13.96667 C 11.56 g/m*3 13.97 C 4.13333 km/h
80 18-06-2020 07:00:00 14.34167 C 11.82 g/m*3 14.34 C 2.13333 km/h
81 18-06-2020 08:00:00 15.325 C 12.22 g/m*3 15.33 C 4.95833 km/h
82 18-06-2020 09:00:00 16.45833 C 12.3 g/m*3 16.46 C 6.84167 km/h
83 18-06-2020 10:00:00 17.675 C 12.44 g/m*3 17.68 C 6.85 km/h
84 18-06-2020 11:00:00 18.75 C 12.5 g/m*3 18.75 C 6.175 km/h
85 18-06-2020 12:00:00 19.71667 C 12.32 g/m*3 19.72 C 10.21667 km/h
86 18-06-2020 13:00:00 20.79167 C 11.99 g/m*3 20.79 C 12.9 km/h
87 18-06-2020 14:00:00 22.2 C 12.04 g/m*3 22.2 C 11.03333 km/h
88 18-06-2020 15:00:00 23.54167 C 11.68 g/m*3 23.54 C 10.35 km/h
89 18-06-2020 16:00:00 25.09167 C 11.49 g/m*3 25.09 C 11.56667 km/h
90 18-06-2020 17:00:00 24.875 C 11.28 g/m*3 24.88 C 15.83333 km/h
91 18-06-2020 18:00:00 23.86667 C 10.89 g/m*3 23.87 C 15.03333 km/h
92 18-06-2020 19:00:00 23.89167 C 11.55 g/m*3 23.89 C 10.76667 km/h
93 18-06-2020 20:00:00 23.2 C 11.36 g/m*3 23.2 C 9.95 km/h
94 18-06-2020 21:00:00 20.63333 C 12.46 g/m*3 20.63 C 3.875 km/h
95 18-06-2020 22:00:00 17.20833 C 11.79 g/m*3 17.21 C 5.06667 km/h
96 18-06-2020 23:00:00 15.73333 C 11.55 g/m*3 15.73 C 0.93333 km/h
97 19-06-2020 00:00:00 15.21667 C 11.5 g/m*3 15.22 C 1.875 km/h
98 19-06-2020 01:00:00 14.68333 C 11.17 g/m*3 14.68 C 0.26667 km/h
99 19-06-2020 02:00:00 13.525 C 10.73 g/m*3 13.53 C 0.53333 km/h
100 19-06-2020 03:00:00 12.875 C 10.47 g/m*3 12.88 C 0.4 km/h
Sensor: Nr:Datum:Temp:Abs-Feuchte:Windchill:Wind:
Aussen-T/F 101 19-06-2020 04:00:00 12.33333 C 10.22 g/m*3 12.33 C 1.33333 km/h
102 19-06-2020 05:00:00 12.225 C 10.23 g/m*3 12.23 C 1.06667 km/h
103 19-06-2020 06:00:00 12.575 C 10.49 g/m*3 12.58 C 0.66667 km/h
104 19-06-2020 07:00:00 13.64167 C 11.21 g/m*3 13.64 C 0.53333 km/h
105 19-06-2020 08:00:00 15.75 C 11.83 g/m*3 15.75 C 8.475 km/h
106 19-06-2020 09:00:00 17.55 C 11.91 g/m*3 17.55 C 9.81667 km/h
107 19-06-2020 10:00:00 19.15833 C 12.35 g/m*3 19.16 C 5.75 km/h
108 19-06-2020 11:00:00 20.85 C 12.12 g/m*3 20.85 C 9.94167 km/h
109 19-06-2020 12:00:00 21.90833 C 11.94 g/m*3 21.91 C 11.96667 km/h
110 19-06-2020 13:00:00 21.50833 C 12.14 g/m*3 21.51 C 6.30833 km/h
111 19-06-2020 14:00:00 22.34167 C 11.58 g/m*3 22.34 C 8.71667 km/h
112 19-06-2020 15:00:00 22.26667 C 11.45 g/m*3 22.27 C 13.96667 km/h
113 19-06-2020 16:00:00 16.48333 C 12.44 g/m*3 16.48 C 9.4 km/h
114 19-06-2020 17:00:00 16.29167 C 13.14 g/m*3 16.29 C 10.60833 km/h
115 19-06-2020 18:00:00 18.11667 C 14.22 g/m*3 18.12 C 4.40833 km/h
116 19-06-2020 19:00:00 18.90833 C 14.32 g/m*3 18.91 C 3.06667 km/h
117 19-06-2020 20:00:00 18.16667 C 14.01 g/m*3 18.17 C 6.05833 km/h
118 19-06-2020 21:00:00 16.075 C 12.53 g/m*3 16.08 C 7.40833 km/h
119 19-06-2020 22:00:00 14.81667 C 11.89 g/m*3 14.82 C 3.73333 km/h
120 19-06-2020 23:00:00 14.175 C 11.54 g/m*3 14.18 C 0.53333 km/h
121 20-06-2020 00:00:00 13.58333 C 11.18 g/m*3 13.58 C 0.13333 km/h
122 20-06-2020 01:00:00 13.475 C 11.21 g/m*3 13.48 C 0.13333 km/h
123 20-06-2020 02:00:00 13.35833 C 11.13 g/m*3 13.36 C 0.66667 km/h
124 20-06-2020 03:00:00 12.95833 C 10.86 g/m*3 12.96 C 0 km/h
125 20-06-2020 04:00:00 12.59167 C 10.65 g/m*3 12.59 C 0.4 km/h
Sensor: Nr:Datum:Temp:Abs-Feuchte:Windchill:Wind:
Aussen-T/F 126 20-06-2020 05:00:00 12.475 C 10.63 g/m*3 12.48 C 0.66667 km/h
127 20-06-2020 06:00:00 12.64167 C 10.76 g/m*3 12.64 C 3.74167 km/h
128 20-06-2020 07:00:00 13.05 C 11.03 g/m*3 13.05 C 4.00833 km/h
129 20-06-2020 08:00:00 14.125 C 11.87 g/m*3 14.13 C 0.4 km/h
130 20-06-2020 09:00:00 15.35833 C 12.66 g/m*3 15.36 C 0.8 km/h
131 20-06-2020 10:00:00 17.56667 C 13.3 g/m*3 17.57 C 2.275 km/h
132 20-06-2020 11:00:00 20.11667 C 12.86 g/m*3 20.12 C 6.3 km/h
133 20-06-2020 12:00:00 19.76667 C 12.8 g/m*3 19.77 C 4.66667 km/h
134 20-06-2020 13:00:00 19.59167 C 13.27 g/m*3 19.59 C 4 km/h
135 20-06-2020 14:00:00 19.74167 C 12.84 g/m*3 19.74 C 3.075 km/h
136 20-06-2020 15:00:00 20.20833 C 12.81 g/m*3 20.21 C 2.8 km/h
137 20-06-2020 16:00:00 22.89167 C 12.07 g/m*3 22.89 C 6.96667 km/h
138 20-06-2020 17:00:00 22.33333 C 11.36 g/m*3 22.33 C 5.90833 km/h
139 20-06-2020 18:00:00 21.06667 C 12.86 g/m*3 21.07 C 7.65 km/h
140 20-06-2020 19:00:00 19.625 C 12.88 g/m*3 19.63 C 5.9 km/h
141 20-06-2020 20:00:00 19.04167 C 13.38 g/m*3 19.04 C 1.86667 km/h
142 20-06-2020 21:00:00 18.36667 C 13.15 g/m*3 18.37 C 2.93333 km/h
143 20-06-2020 22:00:00 17 C 12.64 g/m*3 17 C 2.53333 km/h
144 20-06-2020 23:00:00 15.69167 C 11.88 g/m*3 15.69 C 2.26667 km/h
145 21-06-2020 00:00:00 14.48333 C 11.37 g/m*3 14.48 C 0.66667 km/h
146 21-06-2020 01:00:00 13.80833 C 11.14 g/m*3 13.81 C 0.53333 km/h
147 21-06-2020 02:00:00 13.24167 C 10.84 g/m*3 13.24 C 0.8 km/h
148 21-06-2020 03:00:00 12.53333 C 10.46 g/m*3 12.53 C 0.13333 km/h
149 21-06-2020 04:00:00 11.80833 C 10.03 g/m*3 11.81 C 0 km/h
150 21-06-2020 05:00:00 12.2 C 10.36 g/m*3 12.2 C 0.93333 km/h
Sensor: Nr:Datum:Temp:Abs-Feuchte:Windchill:Wind:
Aussen-T/F 151 21-06-2020 06:00:00 12.36667 C 10.48 g/m*3 12.37 C 0.26667 km/h
152 21-06-2020 07:00:00 12.7 C 10.74 g/m*3 12.7 C 4.26667 km/h
153 21-06-2020 08:00:00 13.33333 C 11.21 g/m*3 13.33 C 2.13333 km/h
154 21-06-2020 09:00:00 14.425 C 11.89 g/m*3 14.43 C 0 km/h
155 21-06-2020 10:00:00 17.05 C 13.35 g/m*3 17.05 C 0 km/h
156 21-06-2020 11:00:00 21.25 C 12.84 g/m*3 21.25 C 1.06667 km/h
157 21-06-2020 12:00:00 22.64167 C 11.85 g/m*3 22.64 C 8.61667 km/h
158 21-06-2020 13:00:00 23.65833 C 11.45 g/m*3 23.66 C 8.60833 km/h
159 21-06-2020 14:00:00 24.55 C 11.65 g/m*3 24.55 C 10.34167 km/h
160 21-06-2020 15:00:00 26.325 C 11.59 g/m*3 26.33 C 11.16667 km/h
161 21-06-2020 16:00:00 27.7 C 11.37 g/m*3 27.7 C 13.28333 km/h
162 21-06-2020 17:00:00 27.85 C 11.01 g/m*3 27.85 C 13.16667 km/h
163 21-06-2020 18:00:00 26.84167 C 11.57 g/m*3 26.84 C 10.75833 km/h
164 21-06-2020 19:00:00 25.79167 C 12.73 g/m*3 25.79 C 7 km/h
165 21-06-2020 20:00:00 23.65 C 13.86 g/m*3 23.65 C 3.6 km/h
166 21-06-2020 21:00:00 22.14167 C 13 g/m*3 22.14 C 4.40833 km/h
167 21-06-2020 22:00:00 19.11667 C 12.44 g/m*3 19.12 C 5.2 km/h
168 21-06-2020 23:00:00 17.8 C 12.45 g/m*3 17.8 C 2.93333 km/h
169 22-06-2020 00:00:00 17.38333 C 12.46 g/m*3 17.38 C 0 km/h
170 22-06-2020 01:00:00 16.58333 C 12.09 g/m*3 16.58 C 3.6 km/h
171 22-06-2020 02:00:00 16.1 C 11.94 g/m*3 16.1 C 2.4 km/h
172 22-06-2020 03:00:00 15.45833 C 11.73 g/m*3 15.46 C 1.33333 km/h
173 22-06-2020 04:00:00 16.00833 C 12.05 g/m*3 16.01 C 0.8 km/h
174 22-06-2020 05:00:00 16.46667 C 11.89 g/m*3 16.47 C 9.8 km/h
175 22-06-2020 06:00:00 15.53333 C 11.28 g/m*3 15.53 C 5.075 km/h
Sensor: Nr:Datum:Temp:Abs-Feuchte:Windchill:Wind:
Aussen-T/F 176 22-06-2020 07:00:00 15.29167 C 11.06 g/m*3 15.29 C 5.375 km/h
177 22-06-2020 08:00:00 15.24167 C 11.12 g/m*3 15.24 C 4.41667 km/h
178 22-06-2020 09:00:00 16.175 C 11.46 g/m*3 16.18 C 4.54167 km/h
179 22-06-2020 10:00:00 16.90833 C 11.64 g/m*3 16.91 C 7.11667 km/h
180 22-06-2020 11:00:00 17.59167 C 12 g/m*3 17.59 C 6.56667 km/h
181 22-06-2020 12:00:00 18.625 C 12.31 g/m*3 18.63 C 5.88333 km/h
182 22-06-2020 13:00:00 19.825 C 12.67 g/m*3 19.83 C 8.05833 km/h
183 22-06-2020 14:00:00 21.15 C 12.58 g/m*3 21.15 C 9.95833 km/h
184 22-06-2020 15:00:00 22.96667 C 12.33 g/m*3 22.97 C 9.825 km/h
185 22-06-2020 16:00:00 23.14167 C 11.85 g/m*3 23.14 C 8.74167 km/h
186 22-06-2020 17:00:00 24.55833 C 10.14 g/m*3 24.56 C 9.80833 km/h
187 22-06-2020 18:00:00 25.1 C 9.16 g/m*3 25.1 C 9.81667 km/h
188 22-06-2020 19:00:00 24.74167 C 9.57 g/m*3 24.74 C 6.95833 km/h
189 22-06-2020 20:00:00 23.83333 C 9.68 g/m*3 23.83 C 3.6 km/h
190 22-06-2020 21:00:00 20.88333 C 10.93 g/m*3 20.88 C 3.06667 km/h
191 22-06-2020 22:00:00 17.19167 C 10.43 g/m*3 17.19 C 6.33333 km/h
192 22-06-2020 23:00:00 15.35 C 10.42 g/m*3 15.35 C 0 km/h
193 23-06-2020 00:00:00 13.80833 C 10.05 g/m*3 13.81 C 0 km/h
194 23-06-2020 01:00:00 12.825 C 9.84 g/m*3 12.83 C 0 km/h
195 23-06-2020 02:00:00 12.29167 C 9.72 g/m*3 12.29 C 0 km/h
196 23-06-2020 03:00:00 11.875 C 9.6 g/m*3 11.88 C 0.13333 km/h
197 23-06-2020 04:00:00 11.28333 C 9.37 g/m*3 11.28 C 0 km/h
198 23-06-2020 05:00:00 10.81667 C 9.22 g/m*3 10.82 C 0 km/h
199 23-06-2020 06:00:00 10.94167 C 9.4 g/m*3 10.94 C 0 km/h
200 23-06-2020 07:00:00 11.55 C 9.84 g/m*3 11.55 C 0 km/h
Sensor: Nr:Datum:Temp:Abs-Feuchte:Windchill:Wind:
Aussen-T/F 201 23-06-2020 08:00:00 12.75 C 10.61 g/m*3 12.75 C 0 km/h
202 23-06-2020 09:00:00 14.55 C 11.7 g/m*3 14.55 C 0 km/h
203 23-06-2020 10:00:00 18.63333 C 12.85 g/m*3 18.63 C 1.73333 km/h
204 23-06-2020 11:00:00 22.6 C 11.82 g/m*3 22.6 C 4.94167 km/h
205 23-06-2020 12:00:00 23.39167 C 11.14 g/m*3 23.39 C 7.375 km/h
206 23-06-2020 13:00:00 24.44167 C 10.56 g/m*3 24.44 C 9.69167 km/h
207 23-06-2020 14:00:00 25.49167 C 10.12 g/m*3 25.49 C 10.63333 km/h
208 23-06-2020 15:00:00 27.05833 C 10.65 g/m*3 27.06 C 9.81667 km/h
209 23-06-2020 16:00:00 28.29167 C 10.71 g/m*3 28.29 C 10.36667 km/h
210 23-06-2020 17:00:00 29.35833 C 11.47 g/m*3 29.36 C 7.1 km/h
211 23-06-2020 18:00:00 29.2 C 11.57 g/m*3 29.2 C 9.15833 km/h
212 23-06-2020 19:00:00 28.45833 C 11.69 g/m*3 28.46 C 8.34167 km/h
213 23-06-2020 20:00:00 27.425 C 12.73 g/m*3 27.43 C 4.68333 km/h
214 23-06-2020 21:00:00 23.875 C 13.2 g/m*3 23.88 C 3.73333 km/h
215 23-06-2020 22:00:00 20.55 C 11.91 g/m*3 20.55 C 6.275 km/h
216 23-06-2020 23:00:00 18.83333 C 11.82 g/m*3 18.83 C 3.06667 km/h
217 24-06-2020 00:00:00 17.66667 C 11.52 g/m*3 17.67 C 2.8 km/h
218 24-06-2020 01:00:00 17.03333 C 11.16 g/m*3 17.03 C 2.53333 km/h
219 24-06-2020 02:00:00 16.04167 C 10.88 g/m*3 16.04 C 0.4 km/h
220 24-06-2020 03:00:00 14.64167 C 10.62 g/m*3 14.64 C 0 km/h
221 24-06-2020 04:00:00 13.6 C 10.32 g/m*3 13.6 C 0 km/h
222 24-06-2020 05:00:00 12.9 C 10.11 g/m*3 12.9 C 0 km/h
223 24-06-2020 06:00:00 12.78333 C 10.25 g/m*3 12.78 C 0 km/h
224 24-06-2020 07:00:00 13.375 C 10.77 g/m*3 13.38 C 0 km/h
225 24-06-2020 08:00:00 14.59167 C 11.5 g/m*3 14.59 C 0 km/h
Sensor: Nr:Datum:Temp:Abs-Feuchte:Windchill:Wind:
Aussen-T/F 226 24-06-2020 09:00:00 17.15 C 12.18 g/m*3 17.15 C 2 km/h
227 24-06-2020 10:00:00 21.9 C 11.66 g/m*3 21.9 C 6.30833 km/h
228 24-06-2020 11:00:00 24.74167 C 10.46 g/m*3 24.74 C 13.025 km/h
229 24-06-2020 12:00:00 25.44167 C 10.21 g/m*3 25.44 C 15.03333 km/h
230 24-06-2020 13:00:00 26.3 C 9.84 g/m*3 26.3 C 16.23333 km/h
231 24-06-2020 14:00:00 27.05 C 9.7 g/m*3 27.05 C 15.7 km/h
232 24-06-2020 15:00:00 27.85 C 9.22 g/m*3 27.85 C 17.575 km/h
233 24-06-2020 16:00:00 28.68333 C 8.28 g/m*3 28.68 C 17.96667 km/h
234 24-06-2020 17:00:00 28.83333 C 7.8 g/m*3 28.83 C 15.3 km/h
235 24-06-2020 18:00:00 28.81667 C 7.37 g/m*3 28.82 C 14.5 km/h
236 24-06-2020 19:00:00 27.825 C 8.08 g/m*3 27.83 C 13.96667 km/h
237 24-06-2020 20:00:00 27.20833 C 9.52 g/m*3 27.21 C 6.325 km/h
238 24-06-2020 21:00:00 24.25833 C 11.33 g/m*3 24.26 C 3.73333 km/h
239 24-06-2020 22:00:00 20.86667 C 11.39 g/m*3 20.87 C 2.40833 km/h
240 24-06-2020 23:00:00 19.75833 C 11.22 g/m*3 19.76 C 1.73333 km/h
241 25-06-2020 00:00:00 18.66667 C 11.04 g/m*3 18.67 C 2.13333 km/h
242 25-06-2020 01:00:00 18.20833 C 11.02 g/m*3 18.21 C 1.6 km/h
243 25-06-2020 02:00:00 17.09167 C 10.9 g/m*3 17.09 C 0.13333 km/h
244 25-06-2020 03:00:00 15.925 C 10.81 g/m*3 15.93 C 1.73333 km/h
245 25-06-2020 04:00:00 15.2 C 10.76 g/m*3 15.2 C 1.46667 km/h
246 25-06-2020 05:00:00 14.60833 C 10.81 g/m*3 14.61 C 1.33333 km/h
247 25-06-2020 06:00:00 14.675 C 11.11 g/m*3 14.68 C 2.53333 km/h
248 25-06-2020 07:00:00 15.9 C 11.74 g/m*3 15.9 C 2.13333 km/h
249 25-06-2020 08:00:00 17.25833 C 12.26 g/m*3 17.26 C 2.80833 km/h
250 25-06-2020 09:00:00 20.175 C 12.51 g/m*3 20.18 C 8.19167 km/h
Sensor: Nr:Datum:Temp:Abs-Feuchte:Windchill:Wind:
Aussen-T/F 251 25-06-2020 10:00:00 23.33333 C 12.66 g/m*3 23.33 C 11.16667 km/h
252 25-06-2020 11:00:00 24.675 C 12.75 g/m*3 24.68 C 13.56667 km/h
253 25-06-2020 12:00:00 25.45833 C 12.75 g/m*3 25.46 C 13.29167 km/h
254 25-06-2020 13:00:00 26.75833 C 13.12 g/m*3 26.76 C 13.96667 km/h
255 25-06-2020 14:00:00 27.05 C 13.38 g/m*3 27.05 C 14.1 km/h
256 25-06-2020 15:00:00 26.73333 C 14.01 g/m*3 26.73 C 9.55 km/h
257 25-06-2020 16:00:00 26.15 C 14.36 g/m*3 26.15 C 7.675 km/h
258 25-06-2020 17:00:00 26.225 C 14.63 g/m*3 26.23 C 10.1 km/h
259 25-06-2020 18:00:00 26.66667 C 14.91 g/m*3 26.67 C 8.18333 km/h
260 25-06-2020 19:00:00 27.66667 C 14.55 g/m*3 27.67 C 8.48333 km/h
261 25-06-2020 20:00:00 26.66667 C 14.32 g/m*3 26.67 C 6.29167 km/h
262 25-06-2020 21:00:00 24.66667 C 14.84 g/m*3 24.67 C 2.13333 km/h
263 25-06-2020 22:00:00 21.51667 C 13.53 g/m*3 21.52 C 3.06667 km/h
264 25-06-2020 23:00:00 19.59167 C 13.03 g/m*3 19.59 C 4.4 km/h
265 26-06-2020 00:00:00 18.05833 C 12.55 g/m*3 18.06 C 0.8 km/h
266 26-06-2020 01:00:00 16.56667 C 11.96 g/m*3 16.57 C 0.13333 km/h
267 26-06-2020 02:00:00 15.73333 C 11.74 g/m*3 15.73 C 0.13333 km/h
268 26-06-2020 03:00:00 15.05833 C 11.42 g/m*3 15.06 C 0.4 km/h
269 26-06-2020 04:00:00 14.43333 C 11.21 g/m*3 14.43 C 0.13333 km/h
270 26-06-2020 05:00:00 13.88333 C 10.98 g/m*3 13.88 C 0 km/h
271 26-06-2020 06:00:00 13.81667 C 11.09 g/m*3 13.82 C 0.26667 km/h
272 26-06-2020 07:00:00 14.56667 C 11.74 g/m*3 14.57 C 0.4 km/h
273 26-06-2020 08:00:00 15.825 C 12.56 g/m*3 15.83 C 1.06667 km/h
274 26-06-2020 09:00:00 18.29167 C 13.27 g/m*3 18.29 C 3.75833 km/h
275 26-06-2020 10:00:00 23.24167 C 13.56 g/m*3 23.24 C 6.85 km/h
Sensor: Nr:Datum:Temp:Abs-Feuchte:Windchill:Wind:
Aussen-T/F 276 26-06-2020 11:00:00 25.975 C 12.52 g/m*3 25.98 C 9.00833 km/h
277 26-06-2020 12:00:00 26.65 C 11.97 g/m*3 26.65 C 8.59167 km/h
278 26-06-2020 13:00:00 27.28333 C 12.42 g/m*3 27.28 C 11.025 km/h
279 26-06-2020 14:00:00 28.46667 C 12.86 g/m*3 28.47 C 9.95833 km/h
280 26-06-2020 15:00:00 30.15833 C 12.95 g/m*3 30.16 C 9.28333 km/h
281 26-06-2020 16:00:00 31.70833 C 13.05 g/m*3 31.71 C 11.80833 km/h
282 26-06-2020 17:00:00 31.23333 C 13.69 g/m*3 31.23 C 5.1 km/h
283 26-06-2020 18:00:00 28.06667 C 15.1 g/m*3 28.07 C 3.90833 km/h
284 26-06-2020 19:00:00 25.25 C 14.26 g/m*3 25.25 C 15.29167 km/h
285 26-06-2020 20:00:00 23.20833 C 14.56 g/m*3 23.21 C 4.55 km/h
286 26-06-2020 21:00:00 21.55833 C 14.79 g/m*3 21.56 C 4.55833 km/h
287 26-06-2020 22:00:00 21.00833 C 14.81 g/m*3 21.01 C 2.95 km/h
288 26-06-2020 23:00:00 20.21667 C 14.56 g/m*3 20.22 C 2 km/h
289 27-06-2020 00:00:00 20.35833 C 14.28 g/m*3 20.36 C 6.85833 km/h
290 27-06-2020 01:00:00 19.39167 C 13.92 g/m*3 19.39 C 0.53333 km/h
291 27-06-2020 02:00:00 18.29167 C 13.64 g/m*3 18.29 C 0.4 km/h
292 27-06-2020 03:00:00 18.29167 C 13.96 g/m*3 18.29 C 0.13333 km/h
293 27-06-2020 04:00:00 18.13333 C 13.83 g/m*3 18.13 C 0.4 km/h
294 27-06-2020 05:00:00 17.46667 C 13.61 g/m*3 17.47 C 0.53333 km/h
295 27-06-2020 06:00:00 18.24167 C 14.31 g/m*3 18.24 C 2.26667 km/h
296 27-06-2020 07:00:00 19.68333 C 14.89 g/m*3 19.68 C 6.45 km/h
297 27-06-2020 08:00:00 21 C 14.84 g/m*3 21 C 13.83333 km/h
298 27-06-2020 09:00:00 21.7 C 14.78 g/m*3 21.7 C 4.55 km/h
299 27-06-2020 10:00:00 23 C 14.75 g/m*3 23 C 8.46667 km/h
300 27-06-2020 11:00:00 23.09167 C 14.62 g/m*3 23.09 C 7.8 km/h
Sensor: Nr:Datum:Temp:Abs-Feuchte:Windchill:Wind:
Aussen-T/F 301 27-06-2020 12:00:00 22.55833 C 15 g/m*3 22.56 C 5.88333 km/h
302 27-06-2020 13:00:00 23.075 C 15.55 g/m*3 23.08 C 5.75833 km/h
303 27-06-2020 14:00:00 25.38333 C 15.19 g/m*3 25.38 C 15.83333 km/h
304 27-06-2020 15:00:00 27.83333 C 14.35 g/m*3 27.83 C 19.16667 km/h
305 27-06-2020 16:00:00 28.875 C 14.62 g/m*3 28.88 C 17.96667 km/h
306 27-06-2020 17:00:00 28.89167 C 14.42 g/m*3 28.89 C 15.56667 km/h
307 27-06-2020 18:00:00 28.04167 C 14.08 g/m*3 28.04 C 13.425 km/h
308 27-06-2020 19:00:00 26.70833 C 13.7 g/m*3 26.71 C 11.425 km/h
309 27-06-2020 20:00:00 25.525 C 13.55 g/m*3 25.53 C 8.875 km/h
310 27-06-2020 21:00:00 24.375 C 13.67 g/m*3 24.38 C 5.625 km/h
311 27-06-2020 22:00:00 22.85 C 13.93 g/m*3 22.85 C 3.46667 km/h
312 27-06-2020 23:00:00 21.74167 C 14.12 g/m*3 21.74 C 1.6 km/h
313 28-06-2020 00:00:00 20.975 C 14.01 g/m*3 20.98 C 0.53333 km/h
314 28-06-2020 01:00:00 20.04167 C 13.95 g/m*3 20.04 C 0 km/h
315 28-06-2020 02:00:00 20.36667 C 14.2 g/m*3 20.37 C 0.4 km/h
316 28-06-2020 03:00:00 20.075 C 14.9 g/m*3 20.08 C 2.94167 km/h
317 28-06-2020 04:00:00 19.375 C 14.84 g/m*3 19.38 C 0.66667 km/h
318 28-06-2020 05:00:00 19.11667 C 14.67 g/m*3 19.12 C 1.06667 km/h
319 28-06-2020 06:00:00 19.14167 C 14.15 g/m*3 19.14 C 3.20833 km/h
320 28-06-2020 07:00:00 19.94167 C 13.84 g/m*3 19.94 C 7.38333 km/h
321 28-06-2020 08:00:00 20.65833 C 13.51 g/m*3 20.66 C 13.16667 km/h
322 28-06-2020 09:00:00 20.225 C 12.16 g/m*3 20.23 C 13.43333 km/h
323 28-06-2020 10:00:00 19.9 C 11.54 g/m*3 19.9 C 13.96667 km/h
324 28-06-2020 11:00:00 20.425 C 11.81 g/m*3 20.43 C 8.6 km/h
325 28-06-2020 12:00:00 20.56667 C 11.19 g/m*3 20.57 C 9.15833 km/h
Sensor: Nr:Datum:Temp:Abs-Feuchte:Windchill:Wind:
Aussen-T/F 326 28-06-2020 13:00:00 21.83333 C 10.97 g/m*3 21.83 C 12.9 km/h
327 28-06-2020 14:00:00 20.24167 C 11.47 g/m*3 20.24 C 8.73333 km/h
328 28-06-2020 15:00:00 19.45833 C 11.51 g/m*3 19.46 C 6.56667 km/h
329 28-06-2020 16:00:00 20.45833 C 11.21 g/m*3 20.46 C 11.95 km/h
330 28-06-2020 17:00:00 20.71667 C 11.22 g/m*3 20.72 C 8.325 km/h
331 28-06-2020 18:00:00 20.89167 C 11.13 g/m*3 20.89 C 8.60833 km/h
332 28-06-2020 19:00:00 20.45833 C 11.12 g/m*3 20.46 C 5.89167 km/h
333 28-06-2020 20:00:00 20.175 C 11.17 g/m*3 20.18 C 6.975 km/h
334 28-06-2020 21:00:00 19.43333 C 11.21 g/m*3 19.43 C 5.09167 km/h
335 28-06-2020 22:00:00 16.975 C 10.9 g/m*3 16.98 C 3.2 km/h
336 28-06-2020 23:00:00 15.425 C 10.76 g/m*3 15.43 C 4.26667 km/h

Maximal/Minimal-Werte vom 23.02.2003 - 29.06.2020

Sensor Min Max Avg
Temp
(Aussen-T/F)
-16.4 °C
20-12-2009  01:30:01
40.4 °C
25-07-2019  16:20:00
11.16 °C

Die Daten stammen von einer Davis Vantage Pro 2 Wetter-Station und werden unter Linux mit der Software wview2wettercgi und aufbereitet. Alle Angaben erfolgen ohne Gewähr für ihre Vollständigkeit oder Richtigkeit.
Kontakt: Rainer Krienke krienke@uni-koblenz.de . Meine Webseiten an der Uni Koblenz oder privat.
Version: $Revision: 0.78 $